カタログに戻る

ARIANE 44L+ DEB

運用中GTO
NORAD 23245·DEBRIS·🇫🇷 France

打ち上げ Apr 15, 1992 から Guiana Space Centre

Loading…

TLE

古いSource: Space-Track

元期: Sep 14, 2026, 02:48 UTC

1 23245U 92021P   26257.11701890 -.00000119  00000-0  00000-0 0  9991
2 23245   4.0980  11.8490 7007933 109.6961 334.0394  2.25183718117915

AllMySatでARIANE 44L+ DEBをリアルタイム追跡

Download on the App Store